Weather History for Carlsbad, NM

Change the Weather History Date:

Sunday, September 23, 2012

  Actual Average Record
Temperature  
Mean Temperature 72 °F -  
Max Temperature 91 °F 81 °F 98 °F (1953)
Min Temperature 54 °F 56 °F 44 °F (1972)
Cooling Degree Days 8    
Growing Degree Days 22 (Base 50)    
Moisture  
Dew Point 31 °F    
Average Humidity 23    
Maximum Humidity 43    
Minimum Humidity 9    
Precipitation  
Precipitation 0.00 in - - ()
Sea Level Pressure  
Sea Level Pressure 30.03 in    
Wind  
Wind Speed 7 mph (SSE)    
Max Wind Speed 15 mph    
Max Gust Speed 22 mph    
Visibility 10 miles    
Events      
Averages and records for this station are not official NWS values.
T = Trace of Precipitation, MM = Missing Value Source: NWS Daily Summary

Daily Weather History Graph

Daily Weather History Graph

Search for Another Location

Airport:

Trip Planner

Search our weather history database for the weather conditions in past years. The results will help you decide how hot, cold, wet, or windy it might be!

Date:

Astronomy

Sep. 23, 2012 Rise Set
Actual Time 6:46 AM MDT 6:51 PM MDT
Civil Twilight 6:21 AM MDT 7:16 PM MDT
Nautical Twilight 5:53 AM MDT 7:44 PM MDT
Astronomical Twilight 5:24 AM MDT 8:13 PM MDT
Moon 2:37 PM MDT (9/23) 12:19 AM MDT (9/23)
Length of Visible Light 12h 54m
Length of Day
12h 05m
First Quarter, 60% of the Moon is Illuminated
Sep 23
First Quarter
Sep 29
Full
Oct 8
Last Quarter
Oct 15
New
Oct 21
First Quarter

Hourly Weather History & Observations

Time (MDT) Temp. Dew Point Humidity Pressure Visibility Wind Dir Wind Speed Gust Speed Precip Events Conditions
12:53 AM 73.9 °F 30.9 °F 21% 29.99 in 10.0 mi South 13.8 mph - N/A   Clear
1:53 AM 73.0 °F 28.9 °F 20% 29.99 in 10.0 mi South 10.4 mph - N/A   Clear
2:53 AM 69.1 °F 28.9 °F 22% 29.99 in 10.0 mi South 6.9 mph - N/A   Clear
3:53 AM 61.0 °F 33.1 °F 35% 30.01 in 10.0 mi NNE 3.5 mph - N/A   Clear
4:53 AM 59.0 °F 34.0 °F 39% 30.02 in 10.0 mi ENE 3.5 mph - N/A   Clear
5:53 AM 55.0 °F 33.1 °F 43% 30.04 in 10.0 mi Calm Calm - N/A   Clear
6:53 AM 54.0 °F 32.0 °F 43% 30.08 in 10.0 mi WNW 3.5 mph - N/A   Clear
7:53 AM 63.0 °F 34.0 °F 34% 30.09 in 10.0 mi Calm Calm - N/A   Clear
8:53 AM 70.0 °F 34.0 °F 27% 30.10 in 10.0 mi Calm Calm - N/A   Clear
9:53 AM 73.9 °F 34.0 °F 23% 30.10 in 10.0 mi Calm Calm - N/A   Clear
10:53 AM 80.1 °F 36.0 °F 20% 30.08 in 10.0 mi East 4.6 mph - N/A   Clear
11:53 AM 84.0 °F 33.1 °F 16% 30.07 in 10.0 mi Calm Calm - N/A   Clear
12:53 PM 89.1 °F 25.0 °F 10% 30.03 in 10.0 mi SSE 15.0 mph 20.7 mph N/A   Clear
1:53 PM 89.1 °F 21.9 °F 9% 30.00 in 10.0 mi SSE 10.4 mph - N/A   Clear
2:53 PM 91.0 °F 25.0 °F 9% 29.98 in 10.0 mi SE 12.7 mph 17.3 mph N/A   Clear
3:53 PM 90.0 °F 25.0 °F 10% 29.97 in 10.0 mi SE 9.2 mph 21.9 mph N/A   Clear
4:53 PM 89.1 °F 27.0 °F 11% 29.98 in 10.0 mi ESE 9.2 mph 18.4 mph N/A   Clear
5:53 PM 87.1 °F 28.9 °F 12% 29.99 in 10.0 mi SSE 9.2 mph 17.3 mph N/A   Clear
6:53 PM 82.0 °F 28.9 °F 14% 30.01 in 10.0 mi SE 8.1 mph - N/A   Clear
7:53 PM 75.9 °F 30.0 °F 19% 30.02 in 10.0 mi SE 8.1 mph - N/A   Clear
8:53 PM 73.0 °F 30.9 °F 21% 30.02 in 10.0 mi SSE 8.1 mph - N/A   Clear
9:53 PM 69.1 °F 32.0 °F 25% 30.03 in 10.0 mi SSE 6.9 mph - N/A   Clear
10:53 PM 66.0 °F 34.0 °F 30% 30.02 in 10.0 mi South 6.9 mph - N/A   Clear
11:53 PM 66.9 °F 37.0 °F 33% 30.00 in 10.0 mi South 6.9 mph - N/A   Clear